Time,TemperatureF,DewpointF,PressureIn,WindDirection,WindDirectionDegrees,WindSpeedMPH,WindSpeedGustMPH,Humidity,HourlyPrecipIn,Conditions,Clouds,dailyrainin,SoftwareType,DateUTC
2013-05-07 00:02:00,53.7,51.1,29.94,WNW,292,0.0,0.0,91,0.00,,---,0.00,VWS V14.01,2013-05-07 05:02:00,
2013-05-07 00:07:00,53.5,51.3,29.94,WNW,292,0.0,0.0,92,0.00,,---,0.00,VWS V14.01,2013-05-07 05:07:00,
2013-05-07 00:12:00,53.5,51.3,29.94,WNW,292,0.0,0.0,92,0.00,,---,0.00,VWS V14.01,2013-05-07 05:12:00,
2013-05-07 00:17:00,53.5,51.3,29.94,WNW,292,0.0,0.0,92,0.00,,---,0.00,VWS V14.01,2013-05-07 05:17:00,
2013-05-07 00:22:00,53.5,51.3,29.94,WNW,292,0.0,0.0,92,0.00,,---,0.00,VWS V14.01,2013-05-07 05:22:00,
2013-05-07 00:27:00,53.3,51.1,29.94,WNW,292,0.0,0.0,92,0.00,,---,0.00,VWS V14.01,2013-05-07 05:27:00,
2013-05-07 00:32:00,53.3,51.1,29.94,WNW,292,0.0,0.0,92,0.00,,---,0.00,VWS V14.01,2013-05-07 05:32:00,
2013-05-07 00:37:00,53.3,51.4,29.94,WNW,292,0.0,0.0,93,0.00,,---,0.00,VWS V14.01,2013-05-07 05:37:00,
2013-05-07 00:42:00,53.3,51.4,29.94,WNW,292,0.0,0.0,93,0.00,,---,0.00,VWS V14.01,2013-05-07 05:42:00,
2013-05-07 00:47:00,53.2,51.2,29.94,WNW,292,0.0,0.0,93,0.00,,---,0.00,VWS V14.01,2013-05-07 05:47:00,
2013-05-07 00:52:00,53.2,51.2,29.94,WNW,292,0.0,0.0,93,0.00,,---,0.00,VWS V14.01,2013-05-07 05:52:00,
2013-05-07 00:57:00,53.2,51.2,29.94,WNW,292,0.0,0.0,93,0.00,,---,0.00,VWS V14.01,2013-05-07 05:57:00,
2013-05-07 01:02:00,53.0,51.0,29.94,WNW,292,0.0,0.0,93,0.00,,---,0.00,VWS V14.01,2013-05-07 06:02:00,
2013-05-07 01:07:00,53.0,51.0,29.94,WNW,292,0.0,0.0,93,0.00,,---,0.00,VWS V14.01,2013-05-07 06:07:00,
2013-05-07 01:12:00,53.0,51.0,29.94,WNW,292,0.0,0.0,93,0.00,,---,0.00,VWS V14.01,2013-05-07 06:12:00,
2013-05-07 01:17:00,52.8,50.8,29.94,WNW,292,0.0,0.0,93,0.00,,---,0.00,VWS V14.01,2013-05-07 06:17:00,
2013-05-07 01:22:00,52.6,50.7,29.94,WNW,292,0.0,0.0,93,0.00,,---,0.00,VWS V14.01,2013-05-07 06:22:00,
2013-05-07 01:27:00,52.6,50.7,29.94,WNW,292,0.0,0.0,93,0.00,,---,0.00,VWS V14.01,2013-05-07 06:27:00,
2013-05-07 01:32:00,52.6,50.7,29.91,WNW,292,0.0,0.0,93,0.00,,---,0.00,VWS V14.01,2013-05-07 06:32:00,
2013-05-07 01:37:00,52.6,50.7,29.91,WNW,292,0.0,0.0,93,0.00,,---,0.00,VWS V14.01,2013-05-07 06:37:00,
2013-05-07 01:42:00,52.6,50.7,29.91,WNW,292,0.0,0.0,93,0.00,,---,0.00,VWS V14.01,2013-05-07 06:42:00,
2013-05-07 01:47:00,52.6,50.7,29.91,WNW,292,0.0,0.0,93,0.00,,---,0.00,VWS V14.01,2013-05-07 06:47:00,
2013-05-07 01:52:00,52.4,50.5,29.91,WSW,248,0.0,0.0,93,0.00,,---,0.00,VWS V14.01,2013-05-07 06:52:00,
2013-05-07 01:57:00,52.4,50.5,29.91,WSW,248,0.0,0.0,93,0.00,,---,0.00,VWS V14.01,2013-05-07 06:57:00,
2013-05-07 02:02:00,52.3,50.3,29.91,WSW,248,0.0,0.0,93,0.00,,---,0.00,VWS V14.01,2013-05-07 07:02:00,
2013-05-07 02:07:00,52.1,50.1,29.91,WSW,248,0.0,0.0,93,0.00,,---,0.00,VWS V14.01,2013-05-07 07:07:00,
2013-05-07 02:12:00,52.1,50.1,29.91,WSW,248,0.0,0.0,93,0.00,,---,0.00,VWS V14.01,2013-05-07 07:12:00,
2013-05-07 02:17:00,51.9,49.9,29.94,WSW,248,0.0,0.0,93,0.00,,---,0.00,VWS V14.01,2013-05-07 07:17:00,
2013-05-07 02:22:00,51.9,49.9,29.94,WSW,248,0.0,0.0,93,0.00,,---,0.00,VWS V14.01,2013-05-07 07:22:00,
2013-05-07 02:27:00,51.7,49.8,29.94,WSW,248,0.0,0.0,93,0.00,,---,0.00,VWS V14.01,2013-05-07 07:27:00,
2013-05-07 02:32:00,51.7,49.8,29.91,WSW,248,0.0,0.0,93,0.00,,---,0.00,VWS V14.01,2013-05-07 07:32:00,
2013-05-07 02:37:00,51.7,49.8,29.91,WSW,248,0.0,0.0,93,0.00,,---,0.00,VWS V14.01,2013-05-07 07:37:00,
2013-05-07 02:42:00,51.5,49.9,29.91,WSW,248,0.0,0.0,94,0.00,,---,0.00,VWS V14.01,2013-05-07 07:42:00,
2013-05-07 02:47:00,51.5,49.9,29.91,WSW,248,0.0,0.0,94,0.00,,---,0.00,VWS V14.01,2013-05-07 07:47:00,
2013-05-07 02:52:00,51.5,49.9,29.91,WSW,248,0.0,0.0,94,0.00,,---,0.00,VWS V14.01,2013-05-07 07:52:00,
2013-05-07 02:57:00,51.4,49.7,29.91,WSW,248,0.0,0.0,94,0.00,,---,0.00,VWS V14.01,2013-05-07 07:57:00,
2013-05-07 03:02:00,51.4,49.7,29.88,WSW,248,0.0,0.0,94,0.00,,---,0.00,VWS V14.01,2013-05-07 08:02:00,
2013-05-07 03:07:00,51.2,49.2,29.88,WSW,248,0.0,0.0,93,0.00,,---,0.00,VWS V14.01,2013-05-07 08:07:00,
2013-05-07 03:12:00,51.2,49.2,29.88,WSW,248,0.0,0.0,93,0.00,,---,0.00,VWS V14.01,2013-05-07 08:12:00,
2013-05-07 03:17:00,51.0,49.0,29.91,WSW,248,0.0,0.0,93,0.00,,---,0.00,VWS V14.01,2013-05-07 08:17:00,
2013-05-07 03:22:00,50.8,48.9,29.91,WSW,248,0.0,0.0,93,0.00,,---,0.00,VWS V14.01,2013-05-07 08:22:00,
2013-05-07 03:27:00,50.8,48.9,29.91,WSW,248,0.0,0.0,93,0.00,,---,0.00,VWS V14.01,2013-05-07 08:27:00,
2013-05-07 03:32:00,50.6,48.7,29.91,WSW,248,0.0,0.0,93,0.00,,---,0.00,VWS V14.01,2013-05-07 08:32:00,
2013-05-07 03:37:00,50.6,48.7,29.91,WSW,248,0.0,0.0,93,0.00,,---,0.00,VWS V14.01,2013-05-07 08:37:00,
2013-05-07 03:42:00,50.6,48.7,29.91,WSW,248,0.0,0.0,93,0.00,,---,0.00,VWS V14.01,2013-05-07 08:42:00,
2013-05-07 03:47:00,50.5,48.8,29.91,WSW,248,0.0,0.0,94,0.00,,---,0.00,VWS V14.01,2013-05-07 08:47:00,
2013-05-07 03:52:00,50.5,48.8,29.91,WSW,248,0.0,0.0,94,0.00,,---,0.00,VWS V14.01,2013-05-07 08:52:00,
2013-05-07 03:57:00,50.5,48.5,29.91,WSW,248,0.0,0.0,93,0.00,,---,0.00,VWS V14.01,2013-05-07 08:57:00,
2013-05-07 04:02:00,50.3,48.3,29.91,WSW,248,0.0,0.0,93,0.00,,---,0.00,VWS V14.01,2013-05-07 09:02:00,
2013-05-07 04:07:00,50.1,48.2,29.91,WSW,248,0.0,0.0,93,0.00,,---,0.00,VWS V14.01,2013-05-07 09:07:00,
2013-05-07 04:12:00,50.1,48.2,29.91,WSW,248,0.0,0.0,93,0.00,,---,0.00,VWS V14.01,2013-05-07 09:12:00,
2013-05-07 04:17:00,50.1,48.2,29.91,WSW,248,0.0,0.0,93,0.00,,---,0.00,VWS V14.01,2013-05-07 09:17:00,
2013-05-07 04:22:00,50.1,48.4,29.91,WSW,248,0.0,0.0,94,0.00,,---,0.00,VWS V14.01,2013-05-07 09:22:00,
2013-05-07 04:27:00,49.9,48.3,29.91,WSW,248,0.0,0.0,94,0.00,,---,0.00,VWS V14.01,2013-05-07 09:27:00,
2013-05-07 04:32:00,49.9,48.3,29.91,WSW,248,0.0,0.0,94,0.00,,---,0.00,VWS V14.01,2013-05-07 09:32:00,
2013-05-07 04:37:00,49.9,48.3,29.91,WSW,248,0.0,0.0,94,0.00,,---,0.00,VWS V14.01,2013-05-07 09:37:00,
2013-05-07 04:42:00,49.9,48.3,29.91,WSW,248,0.0,0.0,94,0.00,,---,0.00,VWS V14.01,2013-05-07 09:42:00,
2013-05-07 04:47:00,49.9,48.3,29.91,WSW,248,0.0,0.0,94,0.00,,---,0.00,VWS V14.01,2013-05-07 09:47:00,
2013-05-07 04:52:00,49.7,48.1,29.91,WSW,248,0.0,0.0,94,0.00,,---,0.00,VWS V14.01,2013-05-07 09:52:00,
2013-05-07 04:57:00,49.7,48.1,29.91,WSW,248,0.0,0.0,94,0.00,,---,0.00,VWS V14.01,2013-05-07 09:57:00,
2013-05-07 05:02:00,49.7,48.1,29.91,WSW,248,0.0,0.0,94,0.00,,---,0.00,VWS V14.01,2013-05-07 10:02:00,
2013-05-07 05:07:00,49.7,48.1,29.91,WSW,248,0.0,0.0,94,0.00,,---,0.00,VWS V14.01,2013-05-07 10:07:00,
2013-05-07 05:12:00,49.7,48.1,29.91,WSW,248,0.0,0.0,94,0.00,,---,0.00,VWS V14.01,2013-05-07 10:12:00,
2013-05-07 05:17:00,49.7,48.1,29.91,WSW,248,0.0,0.0,94,0.00,,---,0.00,VWS V14.01,2013-05-07 10:17:00,
2013-05-07 05:22:00,49.7,48.1,29.91,WSW,248,0.0,0.0,94,0.00,,---,0.00,VWS V14.01,2013-05-07 10:22:00,
2013-05-07 05:27:00,49.7,48.1,29.91,WSW,248,0.0,0.0,94,0.00,,---,0.00,VWS V14.01,2013-05-07 10:27:00,
2013-05-07 05:32:00,49.6,47.9,29.91,WSW,248,0.0,0.0,94,0.00,,---,0.00,VWS V14.01,2013-05-07 10:32:00,
2013-05-07 05:37:00,49.6,47.9,29.91,WSW,248,0.0,0.0,94,0.00,,---,0.00,VWS V14.01,2013-05-07 10:37:00,
2013-05-07 05:42:00,49.4,47.7,29.94,WSW,248,0.0,0.0,94,0.00,,---,0.00,VWS V14.01,2013-05-07 10:42:00,
2013-05-07 05:47:00,49.2,47.3,29.94,WSW,248,0.0,0.0,93,0.00,,---,0.00,VWS V14.01,2013-05-07 10:47:00,
2013-05-07 05:52:00,49.2,47.3,29.94,WSW,248,0.0,0.0,93,0.00,,---,0.00,VWS V14.01,2013-05-07 10:52:00,
2013-05-07 05:57:00,49.2,47.5,29.94,WSW,248,0.0,0.0,94,0.00,,---,0.00,VWS V14.01,2013-05-07 10:57:00,
2013-05-07 06:02:00,49.2,47.5,29.94,SW,225,0.0,0.0,94,0.00,,---,0.00,VWS V14.01,2013-05-07 11:02:00,
2013-05-07 06:07:00,49.0,47.4,29.94,SW,225,0.0,0.0,94,0.00,,---,0.00,VWS V14.01,2013-05-07 11:07:00,
2013-05-07 06:12:00,49.0,47.4,29.94,SW,225,0.0,0.0,94,0.00,,---,0.00,VWS V14.01,2013-05-07 11:12:00,
2013-05-07 06:17:00,49.2,47.5,29.94,SW,225,0.0,0.0,94,0.00,,---,0.00,VWS V14.01,2013-05-07 11:17:00,
2013-05-07 06:22:00,49.2,47.8,29.94,SW,225,0.0,0.0,95,0.00,,---,0.00,VWS V14.01,2013-05-07 11:22:00,
2013-05-07 06:27:00,49.2,47.8,29.94,SW,225,0.0,0.0,95,0.00,,---,0.00,VWS V14.01,2013-05-07 11:27:00,
2013-05-07 06:32:00,49.2,47.5,29.94,West,270,0.0,0.0,94,0.00,,---,0.00,VWS V14.01,2013-05-07 11:32:00,
2013-05-07 06:37:00,49.4,48.0,29.94,WSW,248,0.0,0.0,95,0.00,,---,0.00,VWS V14.01,2013-05-07 11:37:00,
2013-05-07 06:42:00,49.4,48.0,29.94,WSW,248,0.0,0.0,95,0.00,,---,0.00,VWS V14.01,2013-05-07 11:42:00,
2013-05-07 06:47:00,49.6,48.2,29.94,WSW,248,0.0,0.0,95,0.00,,---,0.00,VWS V14.01,2013-05-07 11:47:00,
2013-05-07 06:52:00,49.7,48.4,29.94,WSW,248,0.0,0.0,95,0.00,,---,0.00,VWS V14.01,2013-05-07 11:52:00,
2013-05-07 06:57:00,49.7,48.4,29.94,NNW,338,0.0,0.0,95,0.00,,---,0.00,VWS V14.01,2013-05-07 11:57:00,
2013-05-07 07:02:00,49.7,48.4,29.97,NNW,338,0.0,0.0,95,0.00,,---,0.00,VWS V14.01,2013-05-07 12:02:00,
2013-05-07 07:07:00,49.9,48.8,29.97,NNW,338,0.0,0.0,96,0.00,,---,0.00,VWS V14.01,2013-05-07 12:07:00,
2013-05-07 07:12:00,50.1,49.0,29.97,NNW,338,0.0,0.0,96,0.00,,---,0.00,VWS V14.01,2013-05-07 12:12:00,
2013-05-07 07:17:00,50.3,49.2,29.97,NNW,338,0.0,0.0,96,0.00,,---,0.00,VWS V14.01,2013-05-07 12:17:00,
2013-05-07 07:22:00,50.6,49.5,29.97,NNW,338,0.0,0.0,96,0.00,,---,0.00,VWS V14.01,2013-05-07 12:22:00,
2013-05-07 07:28:00,50.8,49.7,29.97,NNW,338,0.0,0.0,96,0.00,,---,0.00,VWS V14.01,2013-05-07 12:28:00,
2013-05-07 07:33:00,51.2,50.1,29.97,NNW,338,0.0,0.0,96,0.00,,---,0.00,VWS V14.01,2013-05-07 12:33:00,
2013-05-07 07:38:00,51.5,50.4,29.97,NNW,338,0.0,0.0,96,0.00,,---,0.00,VWS V14.01,2013-05-07 12:38:00,
2013-05-07 07:43:00,51.9,50.8,29.97,NNW,338,0.0,0.0,96,0.00,,---,0.00,VWS V14.01,2013-05-07 12:43:00,
2013-05-07 07:48:00,52.3,51.2,29.97,NNW,338,0.0,0.0,96,0.00,,---,0.00,VWS V14.01,2013-05-07 12:48:00,
2013-05-07 07:53:00,52.6,51.8,29.97,NNW,338,0.0,0.0,97,0.00,,---,0.00,VWS V14.01,2013-05-07 12:53:00,
2013-05-07 07:58:00,53.0,51.9,29.97,NNE,22,0.0,0.0,96,0.00,,---,0.00,VWS V14.01,2013-05-07 12:58:00,
2013-05-07 08:03:00,53.5,52.4,29.97,NNE,22,0.0,0.0,96,0.00,,---,0.00,VWS V14.01,2013-05-07 13:03:00,
2013-05-07 08:08:00,54.1,53.2,29.97,North,0,0.0,0.0,97,0.00,,---,0.00,VWS V14.01,2013-05-07 13:08:00,
2013-05-07 08:13:00,54.6,53.8,29.97,North,0,0.0,0.0,97,0.00,,---,0.00,VWS V14.01,2013-05-07 13:13:00,
2013-05-07 08:18:00,55.5,54.7,29.97,North,0,0.0,0.0,97,0.00,,---,0.00,VWS V14.01,2013-05-07 13:18:00,
2013-05-07 08:23:00,56.2,55.7,29.97,North,0,0.0,0.0,98,0.00,,---,0.00,VWS V14.01,2013-05-07 13:23:00,
2013-05-07 08:28:00,56.9,56.4,29.97,ENE,68,0.0,0.0,98,0.00,,---,0.00,VWS V14.01,2013-05-07 13:28:00,
2013-05-07 08:33:00,57.7,57.1,29.97,NNW,338,0.0,0.0,98,0.00,,---,0.00,VWS V14.01,2013-05-07 13:33:00,
2013-05-07 08:38:00,58.6,58.0,29.97,WSW,248,0.0,0.0,98,0.00,,---,0.00,VWS V14.01,2013-05-07 13:38:00,
2013-05-07 08:43:00,59.5,58.9,29.97,NNW,338,0.0,2.2,98,0.00,,---,0.00,VWS V14.01,2013-05-07 13:43:00,
2013-05-07 08:48:00,60.2,59.3,29.97,North,0,0.0,0.0,97,0.00,,---,0.00,VWS V14.01,2013-05-07 13:48:00,
2013-05-07 08:53:00,61.1,60.2,29.97,NNW,338,0.0,0.0,97,0.00,,---,0.00,VWS V14.01,2013-05-07 13:53:00,
2013-05-07 08:58:00,62.2,60.4,29.97,North,0,0.0,0.0,94,0.00,,---,0.00,VWS V14.01,2013-05-07 13:58:00,
2013-05-07 09:03:00,63.2,58.7,29.97,NNW,338,3.4,3.4,85,0.00,,---,0.00,VWS V14.01,2013-05-07 14:03:00,
2013-05-07 09:08:00,64.1,58.9,29.97,West,270,0.0,0.0,83,0.00,,---,0.00,VWS V14.01,2013-05-07 14:08:00,
2013-05-07 09:13:00,64.5,57.8,30.00,NNW,338,4.0,4.0,79,0.00,,---,0.00,VWS V14.01,2013-05-07 14:13:00,
2013-05-07 09:18:00,65.2,58.2,30.00,NW,315,2.5,2.5,78,0.00,,---,0.00,VWS V14.01,2013-05-07 14:18:00,
2013-05-07 09:23:00,66.1,59.8,30.00,North,0,0.0,2.2,80,0.00,,---,0.00,VWS V14.01,2013-05-07 14:23:00,
2013-05-07 09:28:00,66.5,58.0,30.00,NNE,22,3.4,4.3,74,0.00,,---,0.00,VWS V14.01,2013-05-07 14:28:00,
2013-05-07 09:33:00,66.7,58.5,30.00,NNW,338,0.0,0.0,75,0.00,,---,0.00,VWS V14.01,2013-05-07 14:33:00,
2013-05-07 09:38:00,67.0,56.9,30.00,NNE,22,0.0,2.0,70,0.00,,---,0.00,VWS V14.01,2013-05-07 14:38:00,
2013-05-07 09:43:00,67.4,57.7,30.00,NNW,338,0.0,2.7,71,0.00,,---,0.00,VWS V14.01,2013-05-07 14:43:00,
2013-05-07 09:48:00,67.7,56.4,30.00,North,0,4.0,4.0,67,0.00,,---,0.00,VWS V14.01,2013-05-07 14:48:00,
2013-05-07 09:53:00,68.1,56.7,30.00,WNW,292,3.1,3.1,67,0.00,,---,0.00,VWS V14.01,2013-05-07 14:53:00,
2013-05-07 09:58:00,68.1,56.3,30.00,NNW,338,0.0,2.5,66,0.00,,---,0.00,VWS V14.01,2013-05-07 14:58:00,
2013-05-07 10:03:00,68.5,55.4,30.00,NNW,338,2.5,6.0,63,0.00,,---,0.00,VWS V14.01,2013-05-07 15:03:00,
2013-05-07 10:08:00,68.6,56.0,30.00,North,0,0.0,1.6,64,0.00,,---,0.00,VWS V14.01,2013-05-07 15:08:00,
2013-05-07 10:13:00,68.6,55.5,30.00,SW,225,0.0,0.0,63,0.00,,---,0.00,VWS V14.01,2013-05-07 15:13:00,
2013-05-07 10:18:00,69.2,56.1,30.00,NNW,338,4.0,5.6,63,0.00,,---,0.00,VWS V14.01,2013-05-07 15:18:00,
2013-05-07 10:23:00,69.5,55.5,30.00,NW,315,5.6,5.6,61,0.00,,---,0.00,VWS V14.01,2013-05-07 15:23:00,
2013-05-07 10:28:00,69.5,55.5,30.00,NW,315,0.0,0.0,61,0.00,,---,0.00,VWS V14.01,2013-05-07 15:28:00,
2013-05-07 10:33:00,69.9,56.3,30.00,NNW,338,2.9,3.8,62,0.00,,---,0.00,VWS V14.01,2013-05-07 15:33:00,
2013-05-07 10:38:00,70.4,55.4,30.00,NNW,338,3.4,3.4,59,0.00,,---,0.00,VWS V14.01,2013-05-07 15:38:00,
2013-05-07 10:43:00,70.6,55.1,30.00,NNW,338,0.0,3.4,58,0.00,,---,0.00,VWS V14.01,2013-05-07 15:43:00,
2013-05-07 10:48:00,70.4,55.9,30.00,South,180,0.0,0.0,60,0.00,,---,0.00,VWS V14.01,2013-05-07 15:48:00,
2013-05-07 10:53:00,70.4,56.4,30.00,NNW,338,2.7,4.3,61,0.00,,---,0.00,VWS V14.01,2013-05-07 15:53:00,
2013-05-07 10:58:00,70.6,56.1,30.00,NW,315,1.1,1.1,60,0.00,,---,0.00,VWS V14.01,2013-05-07 15:58:00,
2013-05-07 11:03:00,70.6,54.2,30.00,WNW,292,1.3,3.4,56,0.00,,---,0.00,VWS V14.01,2013-05-07 16:03:00,
2013-05-07 11:08:00,70.8,54.3,30.00,NNW,338,2.2,2.2,56,0.00,,---,0.00,VWS V14.01,2013-05-07 16:08:00,
2013-05-07 11:13:00,71.2,55.7,30.00,NW,315,0.0,0.0,58,0.00,,---,0.00,VWS V14.01,2013-05-07 16:13:00,
2013-05-07 11:18:00,70.8,53.8,30.00,NNW,338,2.5,2.5,55,0.00,,---,0.00,VWS V14.01,2013-05-07 16:18:00,
2013-05-07 11:23:00,71.2,54.7,30.00,SE,135,1.3,2.9,56,0.00,,---,0.00,VWS V14.01,2013-05-07 16:23:00,
2013-05-07 11:28:00,71.2,54.7,30.00,NNW,338,0.0,3.6,56,0.00,,---,0.00,VWS V14.01,2013-05-07 16:28:00,
2013-05-07 11:33:00,71.5,54.5,30.00,WNW,292,0.0,1.1,55,0.00,,---,0.00,VWS V14.01,2013-05-07 16:33:00,
2013-05-07 11:38:00,71.3,53.8,30.00,WSW,248,0.0,2.7,54,0.00,,---,0.00,VWS V14.01,2013-05-07 16:38:00,
2013-05-07 11:43:00,71.2,52.7,30.00,NW,315,3.1,3.4,52,0.00,,---,0.00,VWS V14.01,2013-05-07 16:43:00,
2013-05-07 11:48:00,71.5,54.0,30.00,ENE,68,0.0,1.6,54,0.00,,---,0.00,VWS V14.01,2013-05-07 16:48:00,
2013-05-07 11:53:00,72.2,54.2,30.00,NNW,338,1.6,4.3,53,0.00,,---,0.00,VWS V14.01,2013-05-07 16:53:00,
2013-05-07 11:58:00,72.4,53.8,30.00,NNW,338,1.1,2.5,52,0.00,,---,0.00,VWS V14.01,2013-05-07 16:58:00,
2013-05-07 12:03:00,72.2,53.1,30.00,NNW,338,3.8,3.8,51,0.00,,---,0.00,VWS V14.01,2013-05-07 17:03:00,
2013-05-07 12:08:00,71.9,53.3,30.00,NNW,338,2.7,2.7,52,0.00,,---,0.00,VWS V14.01,2013-05-07 17:08:00,
2013-05-07 12:13:00,72.4,54.8,30.00,WNW,292,0.0,0.0,54,0.00,,---,0.00,VWS V14.01,2013-05-07 17:13:00,
2013-05-07 12:18:00,72.4,54.3,30.00,North,0,0.0,0.0,53,0.00,,---,0.00,VWS V14.01,2013-05-07 17:18:00,
2013-05-07 12:23:00,72.2,53.7,30.00,WNW,292,2.2,4.0,52,0.00,,---,0.00,VWS V14.01,2013-05-07 17:23:00,
2013-05-07 12:28:00,71.7,52.1,29.97,NNW,338,4.0,4.0,50,0.00,,---,0.00,VWS V14.01,2013-05-07 17:28:00,
2013-05-07 12:33:00,71.5,53.0,29.97,NW,315,0.0,0.0,52,0.00,,---,0.00,VWS V14.01,2013-05-07 17:33:00,
2013-05-07 12:38:00,71.7,53.2,29.97,NNW,338,3.8,3.8,52,0.00,,---,0.00,VWS V14.01,2013-05-07 17:38:00,
2013-05-07 12:43:00,71.7,53.2,29.97,WNW,292,0.0,0.0,52,0.00,,---,0.00,VWS V14.01,2013-05-07 17:43:00,
2013-05-07 12:48:00,71.9,53.3,29.97,NNW,338,2.2,3.1,52,0.00,,---,0.00,VWS V14.01,2013-05-07 17:48:00,
2013-05-07 12:53:00,71.7,52.6,29.97,WNW,292,3.4,3.4,51,0.00,,---,0.00,VWS V14.01,2013-05-07 17:53:00,
2013-05-07 12:58:00,71.7,52.6,30.00,WNW,292,0.0,0.0,51,0.00,,---,0.00,VWS V14.01,2013-05-07 17:58:00,
2013-05-07 13:03:00,72.1,54.5,30.00,WNW,292,2.5,2.5,54,0.00,,---,0.00,VWS V14.01,2013-05-07 18:03:00,
2013-05-07 13:08:00,72.1,55.0,30.00,WSW,248,0.0,0.0,55,0.00,,---,0.00,VWS V14.01,2013-05-07 18:08:00,
2013-05-07 13:13:00,72.2,55.7,29.97,WSW,248,0.0,0.0,56,0.00,,---,0.00,VWS V14.01,2013-05-07 18:13:00,
2013-05-07 13:18:00,72.2,52.6,29.97,NW,315,3.4,3.8,50,0.00,,---,0.00,VWS V14.01,2013-05-07 18:18:00,
2013-05-07 13:23:00,72.1,53.5,29.97,WNW,292,3.1,3.1,52,0.00,,---,0.00,VWS V14.01,2013-05-07 18:23:00,
2013-05-07 13:28:00,71.9,53.8,29.97,WNW,292,0.0,0.0,53,0.00,,---,0.00,VWS V14.01,2013-05-07 18:28:00,
2013-05-07 13:33:00,72.6,55.0,29.97,North,0,0.0,0.0,54,0.00,,---,0.00,VWS V14.01,2013-05-07 18:33:00,
2013-05-07 13:38:00,72.6,53.5,29.97,WNW,292,0.9,0.9,51,0.00,,---,0.00,VWS V14.01,2013-05-07 18:38:00,
2013-05-07 13:43:00,72.6,53.5,29.97,WNW,292,0.9,2.7,51,0.00,,---,0.00,VWS V14.01,2013-05-07 18:43:00,
2013-05-07 13:48:00,72.8,53.6,29.97,NNW,338,1.6,2.0,51,0.00,,---,0.00,VWS V14.01,2013-05-07 18:48:00,
2013-05-07 13:53:00,72.4,52.8,29.97,NW,315,2.0,2.0,50,0.00,,---,0.00,VWS V14.01,2013-05-07 18:53:00,
2013-05-07 13:58:00,72.8,53.1,29.97,WNW,292,3.1,3.4,50,0.00,,---,0.00,VWS V14.01,2013-05-07 18:58:00,
2013-05-07 14:04:00,72.8,53.1,29.97,North,0,0.0,0.0,50,0.00,,---,0.00,VWS V14.01,2013-05-07 19:04:00,
2013-05-07 14:09:00,72.8,52.5,29.97,NNW,338,0.0,0.0,49,0.00,,---,0.00,VWS V14.01,2013-05-07 19:09:00,
2013-05-07 14:14:00,73.3,54.1,29.97,WNW,292,0.0,0.9,51,0.00,,---,0.00,VWS V14.01,2013-05-07 19:14:00,
2013-05-07 14:19:00,73.7,54.5,29.97,NW,315,2.9,4.3,51,0.00,,---,0.00,VWS V14.01,2013-05-07 19:19:00,
2013-05-07 14:24:00,73.0,53.2,29.97,WNW,292,2.2,2.5,50,0.00,,---,0.00,VWS V14.01,2013-05-07 19:24:00,
2013-05-07 14:29:00,72.2,53.1,29.97,NE,45,0.0,0.0,51,0.00,,---,0.00,VWS V14.01,2013-05-07 19:29:00,
2013-05-07 14:34:00,71.5,53.5,29.97,NW,315,0.0,0.0,53,0.00,,---,0.00,VWS V14.01,2013-05-07 19:34:00,
2013-05-07 14:39:00,71.3,53.8,29.97,WNW,292,1.3,1.3,54,0.00,,---,0.00,VWS V14.01,2013-05-07 19:39:00,
2013-05-07 14:44:00,70.6,54.2,29.97,WNW,292,2.5,2.7,56,0.00,,---,0.00,VWS V14.01,2013-05-07 19:44:00,
2013-05-07 14:49:00,70.6,54.7,29.97,NNW,338,2.0,2.0,57,0.00,,---,0.00,VWS V14.01,2013-05-07 19:49:00,
2013-05-07 14:54:00,71.0,55.0,29.97,NNW,338,0.0,0.0,57,0.00,,---,0.00,VWS V14.01,2013-05-07 19:54:00,
2013-05-07 14:59:00,71.3,55.8,29.97,NNW,338,0.0,2.0,58,0.00,,---,0.00,VWS V14.01,2013-05-07 19:59:00,
2013-05-07 15:04:00,71.7,56.2,29.97,NW,315,6.9,6.9,58,0.00,,---,0.00,VWS V14.01,2013-05-07 20:04:00,
2013-05-07 15:09:00,71.9,54.9,29.97,NNW,338,1.6,1.6,55,0.00,,---,0.00,VWS V14.01,2013-05-07 20:09:00,
2013-05-07 15:14:00,72.2,54.7,29.97,WNW,292,3.1,4.3,54,0.00,,---,0.00,VWS V14.01,2013-05-07 20:14:00,
2013-05-07 15:19:00,72.4,54.8,29.97,NNW,338,2.0,2.5,54,0.00,,---,0.00,VWS V14.01,2013-05-07 20:19:00,
2013-05-07 15:24:00,72.2,54.7,29.97,WSW,248,3.1,3.4,54,0.00,,---,0.00,VWS V14.01,2013-05-07 20:24:00,
2013-05-07 15:29:00,72.1,54.5,29.97,North,0,0.0,0.0,54,0.00,,---,0.00,VWS V14.01,2013-05-07 20:29:00,
2013-05-07 15:34:00,72.6,55.0,29.97,WNW,292,0.0,0.0,54,0.00,,---,0.00,VWS V14.01,2013-05-07 20:34:00,
2013-05-07 15:39:00,73.1,55.0,29.97,NNW,338,2.5,2.5,53,0.00,,---,0.00,VWS V14.01,2013-05-07 20:39:00,
2013-05-07 15:44:00,73.5,55.3,29.97,NNE,22,1.3,2.9,53,0.00,,---,0.00,VWS V14.01,2013-05-07 20:44:00,
2013-05-07 15:49:00,73.5,53.7,29.97,WNW,292,3.1,3.6,50,0.00,,---,0.00,VWS V14.01,2013-05-07 20:49:00,
2013-05-07 15:54:00,73.5,55.3,29.97,NNW,338,0.0,0.0,53,0.00,,---,0.00,VWS V14.01,2013-05-07 20:54:00,
2013-05-07 15:59:00,73.3,54.1,29.97,NW,315,3.6,3.8,51,0.00,,---,0.00,VWS V14.01,2013-05-07 20:59:00,
2013-05-07 16:04:00,73.5,54.8,29.97,NE,45,0.0,0.0,52,0.00,,---,0.00,VWS V14.01,2013-05-07 21:04:00,
2013-05-07 16:09:00,73.1,55.0,29.97,North,0,0.0,1.1,53,0.00,,---,0.00,VWS V14.01,2013-05-07 21:09:00,
2013-05-07 16:14:00,73.3,55.2,29.97,NW,315,2.7,2.9,53,0.00,,---,0.00,VWS V14.01,2013-05-07 21:14:00,
2013-05-07 16:19:00,73.0,55.3,29.97,NNW,338,2.2,2.2,54,0.00,,---,0.00,VWS V14.01,2013-05-07 21:19:00,
2013-05-07 16:24:00,72.6,54.5,29.97,NNW,338,0.0,0.0,53,0.00,,---,0.00,VWS V14.01,2013-05-07 21:24:00,
2013-05-07 16:29:00,72.4,54.8,29.97,NNW,338,2.9,2.9,54,0.00,,---,0.00,VWS V14.01,2013-05-07 21:29:00,
2013-05-07 16:34:00,72.4,56.3,29.97,NW,315,1.6,2.0,57,0.00,,---,0.00,VWS V14.01,2013-05-07 21:34:00,
2013-05-07 16:39:00,72.2,55.2,29.97,NNW,338,1.3,2.2,55,0.00,,---,0.00,VWS V14.01,2013-05-07 21:39:00,
2013-05-07 16:44:00,72.1,54.5,29.97,WNW,292,2.2,4.0,54,0.00,,---,0.00,VWS V14.01,2013-05-07 21:44:00,
2013-05-07 16:49:00,72.2,55.7,29.97,NNW,338,0.0,0.0,56,0.00,,---,0.00,VWS V14.01,2013-05-07 21:49:00,
2013-05-07 16:54:00,73.0,55.3,29.97,NE,45,2.5,3.1,54,0.00,,---,0.00,VWS V14.01,2013-05-07 21:54:00,
2013-05-07 16:59:00,73.1,55.5,29.97,WNW,292,0.9,2.9,54,0.00,,---,0.00,VWS V14.01,2013-05-07 21:59:00,
2013-05-07 17:04:00,73.0,55.3,29.97,NW,315,2.2,4.0,54,0.00,,---,0.00,VWS V14.01,2013-05-07 22:04:00,
2013-05-07 17:09:00,73.1,53.4,29.97,NW,315,2.9,5.8,50,0.00,,---,0.00,VWS V14.01,2013-05-07 22:09:00,
2013-05-07 17:14:00,73.3,54.7,29.97,WNW,292,2.9,2.9,52,0.00,,---,0.00,VWS V14.01,2013-05-07 22:14:00,
2013-05-07 17:19:00,73.0,52.7,29.97,NW,315,4.0,4.9,49,0.00,,---,0.00,VWS V14.01,2013-05-07 22:19:00,
2013-05-07 17:24:00,72.8,54.2,29.97,WNW,292,0.0,0.9,52,0.00,,---,0.00,VWS V14.01,2013-05-07 22:24:00,
2013-05-07 17:29:00,72.6,54.0,29.97,NNW,338,2.2,2.7,52,0.00,,---,0.00,VWS V14.01,2013-05-07 22:29:00,
2013-05-07 17:34:00,73.0,53.8,29.97,NNW,338,5.6,5.6,51,0.00,,---,0.00,VWS V14.01,2013-05-07 22:34:00,
2013-05-07 17:39:00,73.1,53.4,29.97,NNW,338,4.7,4.7,50,0.00,,---,0.00,VWS V14.01,2013-05-07 22:39:00,
2013-05-07 17:44:00,73.3,53.6,29.97,WNW,292,3.1,3.1,50,0.00,,---,0.00,VWS V14.01,2013-05-07 22:44:00,
2013-05-07 17:49:00,73.5,53.7,29.97,NW,315,1.3,2.2,50,0.00,,---,0.00,VWS V14.01,2013-05-07 22:49:00,
2013-05-07 17:54:00,73.5,53.7,29.97,NNW,338,1.6,2.5,50,0.00,,---,0.00,VWS V14.01,2013-05-07 22:54:00,
2013-05-07 17:59:00,73.5,53.7,29.94,NW,315,3.1,3.1,50,0.00,,---,0.00,VWS V14.01,2013-05-07 22:59:00,
2013-05-07 18:04:00,73.5,54.3,29.94,WNW,292,2.5,2.5,51,0.00,,---,0.00,VWS V14.01,2013-05-07 23:04:00,
2013-05-07 18:09:00,73.3,54.1,29.94,ENE,68,1.3,1.3,51,0.00,,---,0.00,VWS V14.01,2013-05-07 23:09:00,
2013-05-07 18:14:00,73.1,55.0,29.97,WNW,292,2.0,2.0,53,0.00,,---,0.00,VWS V14.01,2013-05-07 23:14:00,
2013-05-07 18:19:00,73.0,54.8,29.97,WNW,292,2.5,2.5,53,0.00,,---,0.00,VWS V14.01,2013-05-07 23:19:00,
2013-05-07 18:24:00,72.6,55.0,29.97,West,270,0.0,0.0,54,0.00,,---,0.00,VWS V14.01,2013-05-07 23:24:00,
2013-05-07 18:29:00,72.2,54.7,29.97,NW,315,2.7,2.7,54,0.00,,---,0.00,VWS V14.01,2013-05-07 23:29:00,
2013-05-07 18:34:00,72.1,54.0,29.97,WNW,292,3.6,3.6,53,0.00,,---,0.00,VWS V14.01,2013-05-07 23:34:00,
2013-05-07 18:39:00,71.9,53.8,29.97,WNW,292,0.0,1.3,53,0.00,,---,0.00,VWS V14.01,2013-05-07 23:39:00,
2013-05-07 18:44:00,71.3,54.3,29.97,NNW,338,0.0,0.0,55,0.00,,---,0.00,VWS V14.01,2013-05-07 23:44:00,
2013-05-07 18:49:00,70.8,54.8,29.97,West,270,0.0,0.0,57,0.00,,---,0.00,VWS V14.01,2013-05-07 23:49:00,
2013-05-07 18:54:00,70.1,55.1,29.97,West,270,0.0,0.0,59,0.00,,---,0.00,VWS V14.01,2013-05-07 23:54:00,
2013-05-07 18:59:00,69.7,55.2,29.97,West,270,0.0,0.0,60,0.00,,---,0.00,VWS V14.01,2013-05-07 23:59:00,
2013-05-07 19:04:00,69.4,55.8,29.97,West,270,0.0,0.0,62,0.00,,---,0.00,VWS V14.01,2013-05-08 00:04:00,
2013-05-07 19:09:00,68.8,56.2,29.97,West,270,0.0,0.0,64,0.00,,---,0.00,VWS V14.01,2013-05-08 00:09:00,
2013-05-07 19:14:00,68.5,55.8,29.97,West,270,0.0,0.0,64,0.00,,---,0.00,VWS V14.01,2013-05-08 00:14:00,
2013-05-07 19:19:00,68.1,56.3,29.97,West,270,0.0,0.0,66,0.00,,---,0.00,VWS V14.01,2013-05-08 00:19:00,
2013-05-07 19:24:00,67.7,56.0,29.97,West,270,0.0,0.0,66,0.00,,---,0.00,VWS V14.01,2013-05-08 00:24:00,
2013-05-07 19:29:00,67.4,56.1,29.97,West,270,0.0,0.0,67,0.00,,---,0.00,VWS V14.01,2013-05-08 00:29:00,
2013-05-07 19:34:00,67.0,56.5,29.97,West,270,0.0,0.0,69,0.00,,---,0.00,VWS V14.01,2013-05-08 00:34:00,
2013-05-07 19:39:00,66.7,56.6,29.97,West,270,0.0,0.0,70,0.00,,---,0.00,VWS V14.01,2013-05-08 00:39:00,
2013-05-07 19:44:00,66.5,56.4,29.97,West,270,0.0,0.0,70,0.00,,---,0.00,VWS V14.01,2013-05-08 00:44:00,
2013-05-07 19:49:00,65.9,56.3,29.97,West,270,0.0,0.0,71,0.00,,---,0.00,VWS V14.01,2013-05-08 00:49:00,
2013-05-07 19:54:00,65.4,56.2,29.97,West,270,0.0,0.0,72,0.00,,---,0.00,VWS V14.01,2013-05-08 00:54:00,
2013-05-07 19:59:00,65.0,56.2,29.97,West,270,0.0,0.0,73,0.00,,---,0.00,VWS V14.01,2013-05-08 00:59:00,
2013-05-07 20:04:00,64.7,55.8,29.97,West,270,0.0,0.0,73,0.00,,---,0.00,VWS V14.01,2013-05-08 01:04:00,
2013-05-07 20:09:00,64.3,55.9,29.97,West,270,0.0,0.0,74,0.00,,---,0.00,VWS V14.01,2013-05-08 01:09:00,
2013-05-07 20:14:00,64.0,56.2,29.97,West,270,0.0,0.0,76,0.00,,---,0.00,VWS V14.01,2013-05-08 01:14:00,
2013-05-07 20:19:00,63.6,56.3,29.97,West,270,0.0,0.0,77,0.00,,---,0.00,VWS V14.01,2013-05-08 01:19:00,
2013-05-07 20:24:00,63.2,56.3,29.97,West,270,0.0,0.0,78,0.00,,---,0.00,VWS V14.01,2013-05-08 01:24:00,
2013-05-07 20:29:00,63.1,56.1,29.97,West,270,0.0,0.0,78,0.00,,---,0.00,VWS V14.01,2013-05-08 01:29:00,
2013-05-07 20:34:00,62.7,56.5,29.97,West,270,0.0,0.0,80,0.00,,---,0.00,VWS V14.01,2013-05-08 01:34:00,
2013-05-07 20:39:00,62.5,56.3,29.97,West,270,0.0,0.0,80,0.00,,---,0.00,VWS V14.01,2013-05-08 01:39:00,
2013-05-07 20:44:00,62.2,56.3,29.97,West,270,0.0,0.0,81,0.00,,---,0.00,VWS V14.01,2013-05-08 01:44:00,
2013-05-07 20:49:00,62.0,56.1,29.97,West,270,0.0,0.0,81,0.00,,---,0.00,VWS V14.01,2013-05-08 01:49:00,
2013-05-07 20:54:00,61.8,55.9,29.97,West,270,0.0,0.0,81,0.00,,---,0.00,VWS V14.01,2013-05-08 01:54:00,
2013-05-07 20:59:00,61.6,56.1,29.97,West,270,0.0,0.0,82,0.00,,---,0.00,VWS V14.01,2013-05-08 01:59:00,
2013-05-07 21:04:00,61.4,56.2,29.97,West,270,0.0,0.0,83,0.00,,---,0.00,VWS V14.01,2013-05-08 02:04:00,
2013-05-07 21:09:00,61.1,55.9,29.97,West,270,0.0,0.0,83,0.00,,---,0.00,VWS V14.01,2013-05-08 02:09:00,
2013-05-07 21:14:00,60.9,55.7,29.97,West,270,0.0,0.0,83,0.00,,---,0.00,VWS V14.01,2013-05-08 02:14:00,
2013-05-07 21:19:00,60.7,55.9,29.97,West,270,0.0,0.0,84,0.00,,---,0.00,VWS V14.01,2013-05-08 02:19:00,
2013-05-07 21:24:00,60.4,55.5,29.97,West,270,0.0,0.0,84,0.00,,---,0.00,VWS V14.01,2013-05-08 02:24:00,
2013-05-07 21:29:00,60.4,55.5,29.97,West,270,0.0,0.0,84,0.00,,---,0.00,VWS V14.01,2013-05-08 02:29:00,
2013-05-07 21:34:00,60.2,55.3,29.97,West,270,0.0,0.0,84,0.00,,---,0.00,VWS V14.01,2013-05-08 02:34:00,
2013-05-07 21:39:00,60.0,55.5,29.97,West,270,0.0,0.0,85,0.00,,---,0.00,VWS V14.01,2013-05-08 02:39:00,
2013-05-07 21:44:00,59.8,55.3,30.00,West,270,0.0,0.0,85,0.00,,---,0.00,VWS V14.01,2013-05-08 02:44:00,
2013-05-07 21:50:00,59.6,55.5,30.00,West,270,0.0,0.0,86,0.00,,---,0.00,VWS V14.01,2013-05-08 02:50:00,
2013-05-07 21:55:00,59.6,55.5,30.00,West,270,0.0,0.0,86,0.00,,---,0.00,VWS V14.01,2013-05-08 02:55:00,
2013-05-07 22:00:00,59.5,55.3,30.00,West,270,0.0,0.0,86,0.00,,---,0.00,VWS V14.01,2013-05-08 03:00:00,
2013-05-07 22:05:00,59.5,55.3,30.00,West,270,0.0,0.0,86,0.00,,---,0.00,VWS V14.01,2013-05-08 03:05:00,
2013-05-07 22:10:00,59.1,55.2,30.00,West,270,0.0,0.0,87,0.00,,---,0.00,VWS V14.01,2013-05-08 03:10:00,
2013-05-07 22:15:00,59.1,55.2,30.00,West,270,0.0,0.0,87,0.00,,---,0.00,VWS V14.01,2013-05-08 03:15:00,
2013-05-07 22:20:00,58.9,55.1,30.00,West,270,0.0,0.0,87,0.00,,---,0.00,VWS V14.01,2013-05-08 03:20:00,
2013-05-07 22:25:00,58.7,54.9,30.00,West,270,0.0,0.0,87,0.00,,---,0.00,VWS V14.01,2013-05-08 03:25:00,
2013-05-07 22:30:00,58.7,54.9,30.00,West,270,0.0,0.0,87,0.00,,---,0.00,VWS V14.01,2013-05-08 03:30:00,
2013-05-07 22:35:00,58.6,54.7,30.00,West,270,0.0,0.0,87,0.00,,---,0.00,VWS V14.01,2013-05-08 03:35:00,
2013-05-07 22:40:00,58.4,54.8,30.00,West,270,0.0,0.0,88,0.00,,---,0.00,VWS V14.01,2013-05-08 03:40:00,
2013-05-07 22:45:00,58.2,54.7,30.00,West,270,0.0,0.0,88,0.00,,---,0.00,VWS V14.01,2013-05-08 03:45:00,
2013-05-07 22:50:00,58.0,54.5,30.00,West,270,0.0,0.0,88,0.00,,---,0.00,VWS V14.01,2013-05-08 03:50:00,
2013-05-07 22:55:00,58.0,54.8,30.00,West,270,0.0,0.0,89,0.00,,---,0.00,VWS V14.01,2013-05-08 03:55:00,
2013-05-07 23:00:00,57.8,54.6,30.00,West,270,0.0,0.0,89,0.00,,---,0.00,VWS V14.01,2013-05-08 04:00:00,
2013-05-07 23:01:00,57.8,54.6,30.00,West,270,0.0,0.0,89,0.00,,---,0.00,VWS V14.01,2013-05-08 04:01:00,
2013-05-07 23:06:00,57.8,54.6,30.00,West,270,0.0,0.0,89,0.00,,---,0.00,VWS V14.01,2013-05-08 04:06:00,
2013-05-07 23:11:00,57.7,54.5,30.00,West,270,0.0,0.0,89,0.00,,---,0.00,VWS V14.01,2013-05-08 04:11:00,
2013-05-07 23:16:00,57.5,54.0,30.00,West,270,0.0,0.0,88,0.00,,---,0.00,VWS V14.01,2013-05-08 04:16:00,
2013-05-07 23:21:00,57.3,54.1,30.00,West,270,0.0,0.0,89,0.00,,---,0.00,VWS V14.01,2013-05-08 04:21:00,
2013-05-07 23:26:00,57.3,54.1,30.00,West,270,0.0,0.0,89,0.00,,---,0.00,VWS V14.01,2013-05-08 04:26:00,
2013-05-07 23:31:00,57.3,54.1,30.00,West,270,0.0,0.0,89,0.00,,---,0.00,VWS V14.01,2013-05-08 04:31:00,
2013-05-07 23:36:00,57.1,53.9,30.00,West,270,0.0,0.0,89,0.00,,---,0.00,VWS V14.01,2013-05-08 04:36:00,
2013-05-07 23:41:00,56.9,53.7,30.00,West,270,0.0,0.0,89,0.00,,---,0.00,VWS V14.01,2013-05-08 04:41:00,
2013-05-07 23:46:00,56.9,54.0,30.00,West,270,0.0,0.0,90,0.00,,---,0.00,VWS V14.01,2013-05-08 04:46:00,
2013-05-07 23:51:00,56.8,53.6,30.00,West,270,0.0,0.0,89,0.00,,---,0.00,VWS V14.01,2013-05-08 04:51:00,
2013-05-07 23:56:00,56.8,53.6,30.00,West,270,0.0,0.0,89,0.00,,---,0.00,VWS V14.01,2013-05-08 04:56:00,